SCP
-0 -0 -0 0 0 0 0 0 0 0 0 0 0 0 0 0 0 0 0 0 0 0
-0 -0 -0 0 0 0 0 0 0 0 0 0 0 0 0 0 0 0 0 0 0 0
-0 0 0 0 0 0 0 0 0 0 0 0 0 0 0 0 0 0 0 0 0 0
0 0 0 0 0 0 0 0 0 0 0 0 0 0 0 0 0 0 0 0 0 0
0 0 0 0 0 0 0 0 0 0 0 0 0 0 0 0 0 0 0 0 0 0
0 0 0 0 0 0 0 0 0 0 0 0 0 0 0 0 0 0 0 0 0 0
0 0 0 0 0 0 0 0 0 0 0 0 0 0 0 0 0 0 0 0 0 0
0 0 0 0 0 0 0 0 0 0 0 0 0 0 0 0 0 0 0 0 0 0
0 0 0 0 0 0 0 0 0 0 0 0 0 0 0 0 0 0 0 0 0 0
0 0 0 0 0 0 0 0 0 0 0 0 0 0 0 0 0 0 0 0 0 0
0 0 0 0 0 0 0 0 0 0 0 0 0 0 0 0 0 0 0 0 0 0
0 0 0 0 0 0 0 0 0 0 0 0 0 0 0 0 0 0 0 0 0 0
0 0 0 0 0 0 0 0 0 0 0 0 0 0 0 0 0 0 0 0 0 0
0 0 0 0 0 0 0 0 0 0 0 0 0 0 0 0 0 0 0 0 0 0
Wind_Speed_500mb
60 75 82 61 64 57 55 56 43 32 51 47 54 53 53 62 63 63 64 64 48 50
80 84 78 63 67 67 62 56 56 48 56 50 53 52 58 64 62 65 66 55 51 53
84 89 82 69 67 62 59 54 58 57 60 54 53 55 57 59 59 61 61 56 50 46
95 90 79 71 56 54 59 63 63 49 40 43 54 57 55 54 57 60 62 52 43 42
97 72 92 86 77 61 52 51 45 40 44 48 54 55 55 57 61 60 55 45 39 31
71 57 78 63 59 60 60 54 46 44 45 48 49 47 49 55 54 54 44 31 30 36
51 49 46 46 47 46 49 47 43 43 44 43 45 46 47 48 40 36 26 29 37 38
43 42 41 45 46 41 41 41 44 43 42 42 39 37 36 33 29 21 29 40 35 29
52 54 51 49 46 42 43 45 43 40 38 33 30 25 25 23 21 27 30 28 32 37
58 53 45 38 40 39 39 38 36 35 32 29 27 26 24 24 20 20 24 30 41 38
41 41 40 36 33 31 31 30 29 29 30 30 25 24 22 20 21 25 29 29 29 33
47 45 47 43 39 34 34 32 30 27 25 24 23 18 20 21 23 26 27 28 34 41
46 45 42 37 36 35 31 29 25 23 24 28 28 26 25 24 24 27 30 33 38 42
44 40 37 36 35 30 31 33 35 33 28 24 21 24 27 28 28 31 36 39 43 47
Wind_Direction_500mb
218 219 226 229 221 228 228 235 255 249 230 243 251 261 259 249 243 242 241 243 252 248
220 224 225 229 227 234 242 246 252 261 263 257 263 264 257 252 249 245 249 257 253 248
225 227 223 224 228 239 241 248 248 257 255 263 253 257 258 253 250 246 249 252 245 233
224 228 233 232 240 241 241 247 252 258 249 242 247 251 253 252 253 249 248 247 234 242
226 223 240 239 248 246 248 248 256 249 237 238 246 250 248 247 245 245 249 243 253 244
236 225 231 241 241 248 248 246 246 233 236 243 249 248 248 245 246 254 251 257 245 267
229 214 224 233 235 237 236 240 233 239 243 248 241 240 238 244 253 254 242 239 253 278
219 218 227 225 230 234 231 230 232 240 239 239 240 240 240 239 238 228 231 237 276 286
209 207 216 227 229 222 227 229 230 226 229 225 218 217 221 211 211 220 243 262 266 280
203 203 215 215 223 217 208 205 206 206 205 201 199 201 201 209 216 234 253 258 267 277
201 217 222 210 200 191 188 191 193 189 187 191 189 195 194 210 227 243 254 257 262 272
208 202 197 195 194 189 185 184 187 189 191 172 179 202 223 230 235 248 262 274 276 282
191 190 187 184 178 176 182 180 174 179 185 195 202 207 228 245 260 271 279 286 291 294
184 184 183 184 176 178 181 178 176 180 180 189 208 223 240 255 268 280 289 297 301 306
Wind_Speed_850mb
60 75 82 61 64 57 55 56 43 32 51 47 54 53 53 62 63 63 64 64 48 50
80 84 78 63 67 67 62 56 56 48 56 50 53 52 58 64 62 65 66 55 51 53
84 89 82 69 67 62 59 54 58 57 60 54 53 55 57 59 59 61 61 56 50 46
95 90 79 71 56 54 59 63 63 49 40 43 54 57 55 54 57 60 62 52 43 42
97 72 92 86 77 61 52 51 45 40 44 48 54 55 55 57 61 60 55 45 39 31
71 57 78 63 59 60 60 54 46 44 45 48 49 47 49 55 54 54 44 31 30 36
51 49 46 46 47 46 49 47 43 43 44 43 45 46 47 48 40 36 26 29 37 38
43 42 41 45 46 41 41 41 44 43 42 42 39 37 36 33 29 21 29 40 35 29
52 54 51 49 46 42 43 45 43 40 38 33 30 25 25 23 21 27 30 28 32 37
58 53 45 38 40 39 39 38 36 35 32 29 27 26 24 24 20 20 24 30 41 38
41 41 40 36 33 31 31 30 29 29 30 30 25 24 22 20 21 25 29 29 29 33
47 45 47 43 39 34 34 32 30 27 25 24 23 18 20 21 23 26 27 28 34 41
46 45 42 37 36 35 31 29 25 23 24 28 28 26 25 24 24 27 30 33 38 42
44 40 37 36 35 30 31 33 35 33 28 24 21 24 27 28 28 31 36 39 43 47
Wind_Direction_850mb
218 219 226 229 221 228 228 235 255 249 230 243 251 261 259 249 243 242 241 243 252 248
220 224 225 229 227 234 242 246 252 261 263 257 263 264 257 252 249 245 249 257 253 248
225 227 223 224 228 239 241 248 248 257 255 263 253 257 258 253 250 246 249 252 245 233
224 228 233 232 240 241 241 247 252 258 249 242 247 251 253 252 253 249 248 247 234 242
226 223 240 239 248 246 248 248 256 249 237 238 246 250 248 247 245 245 249 243 253 244
236 225 231 241 241 248 248 246 246 233 236 243 249 248 248 245 246 254 251 257 245 267
229 214 224 233 235 237 236 240 233 239 243 248 241 240 238 244 253 254 242 239 253 278
219 218 227 225 230 234 231 230 232 240 239 239 240 240 240 239 238 228 231 237 276 286
209 207 216 227 229 222 227 229 230 226 229 225 218 217 221 211 211 220 243 262 266 280
203 203 215 215 223 217 208 205 206 206 205 201 199 201 201 209 216 234 253 258 267 277
201 217 222 210 200 191 188 191 193 189 187 191 189 195 194 210 227 243 254 257 262 272
208 202 197 195 194 189 185 184 187 189 191 172 179 202 223 230 235 248 262 274 276 282
191 190 187 184 178 176 182 180 174 179 185 195 202 207 228 245 260 271 279 286 291 294
184 184 183 184 176 178 181 178 176 180 180 189 208 223 240 255 268 280 289 297 301 306